TimeEDT,TemperatureF,Dew PointF,Humidity,Sea Level PressureIn,VisibilityMPH,Wind Direction,Wind SpeedMPH,Gust SpeedMPH,PrecipitationIn,Events,Conditions,WindDirDegrees,DateUTC
12:53 AM,64.0,62.1,93,30.18,10.0,Calm,Calm,-,N/A,,Clear,0,2013-08-27 04:53:00
1:53 AM,63.0,62.1,97,30.17,10.0,Calm,Calm,-,N/A,,Clear,0,2013-08-27 05:53:00
2:53 AM,63.0,61.0,93,30.15,9.0,Calm,Calm,-,N/A,,Clear,0,2013-08-27 06:53:00
3:53 AM,63.0,61.0,93,30.14,10.0,Calm,Calm,-,N/A,,Clear,0,2013-08-27 07:53:00
4:53 AM,61.0,59.0,93,30.13,9.0,Calm,Calm,-,N/A,,Clear,0,2013-08-27 08:53:00
5:53 AM,61.0,59.0,93,30.13,10.0,Calm,Calm,-,N/A,,Clear,0,2013-08-27 09:53:00
6:53 AM,61.0,59.0,93,30.14,10.0,Calm,Calm,-,N/A,,Clear,0,2013-08-27 10:53:00
7:53 AM,64.0,62.1,93,30.14,9.0,Calm,Calm,-,N/A,,Clear,0,2013-08-27 11:53:00
8:53 AM,69.1,63.0,81,30.14,10.0,Calm,Calm,-,N/A,,Clear,0,2013-08-27 12:53:00
9:53 AM,73.9,64.9,73,30.14,10.0,Calm,Calm,-,N/A,,Clear,0,2013-08-27 13:53:00
10:53 AM,80.1,64.0,58,30.13,10.0,North,4.6,-,N/A,,Clear,350,2013-08-27 14:53:00
11:53 AM,81.0,64.9,58,30.13,10.0,Variable,4.6,-,N/A,,Clear,0,2013-08-27 15:53:00
12:53 PM,82.9,64.9,54,30.12,10.0,Calm,Calm,-,N/A,,Partly Cloudy,0,2013-08-27 16:53:00
1:53 PM,82.9,64.0,53,30.09,10.0,WNW,6.9,-,N/A,,Mostly Cloudy,290,2013-08-27 17:53:00
2:53 PM,84.9,66.0,53,30.07,10.0,NW,8.1,-,N/A,,Mostly Cloudy,320,2013-08-27 18:53:00
3:53 PM,86.0,64.9,49,30.05,10.0,NNW,5.8,-,N/A,,Scattered Clouds,330,2013-08-27 19:53:00
4:53 PM,86.0,64.0,48,30.04,10.0,WNW,5.8,-,N/A,,Mostly Cloudy,290,2013-08-27 20:53:00
5:53 PM,84.9,64.0,49,30.04,10.0,WNW,4.6,-,N/A,,Clear,300,2013-08-27 21:53:00
6:53 PM,84.9,66.0,53,30.04,10.0,NNW,5.8,-,N/A,,Mostly Cloudy,330,2013-08-27 22:53:00
7:53 PM,81.0,66.9,62,30.04,10.0,NW,3.5,-,N/A,,Scattered Clouds,320,2013-08-27 23:53:00
8:53 PM,75.9,69.1,79,30.04,10.0,Calm,Calm,-,N/A,,Clear,0,2013-08-28 00:53:00
9:53 PM,73.9,68.0,82,30.06,10.0,Calm,Calm,-,N/A,,Clear,0,2013-08-28 01:53:00
10:53 PM,73.0,68.0,84,30.06,10.0,Calm,Calm,-,N/A,,Clear,0,2013-08-28 02:53:00
11:53 PM,72.0,68.0,87,30.06,9.0,Calm,Calm,-,N/A,,Clear,0,2013-08-28 03:53:00